Station MISP4 - 9759938 - Mona Island, PR Image indicating link to RSS feed of recent meteorological observations for station MISP4


Conditions at MISP4 as of
(12:30 pm AST)
1630 GMT on 04/14/2024:
     

Click on the graph icon in the table below to see a time series plot of the last five days of that observation.

5-day plot - Atmospheric Pressure Atmospheric Pressure (PRES):30.01 in
5-day plot - Water Temperature Water Temperature (WTMP): 82.2 °F
NOS Water Level Observation Network Water Level
Previous observations
TIME
(AST)
5-day plot - Wind Direction
WDIR
 
5-day plot - Wind Speed
WSPD
kts
5-day plot - Wind Gust
GST
kts
5-day plot - Wave Height
WVHT
ft
5-day plot - Dominant Wave Period
DPD
sec
5-day plot - Average Wave Period
APD
sec
5-day plot - Mean Wave Direction
MWD
 
5-day plot - Atmospheric Pressure
PRES
in
5-day plot - Pressure Tendency
PTDY
in
5-day plot - Air Temperature
ATMP
°F
5-day plot - Water Temperature
WTMP
°F
5-day plot - Dew Point
DEWP
°F
5-day plot - Salinity
SAL
psu
5-day plot - Visibility
VIS
nmi
5-day plot - Tide (above MLLW)
TIDE
ft
2024-04-14 12:24 pm-------30.01-- 82.2----
2024-04-14 12:18 pm-------30.01- 81.5 82.2----
2024-04-14 12:12 pm-------30.01- 81.7 82.0----
2024-04-14 12:06 pm-------30.02- 81.7 82.0----
2024-04-14 12:00 pm-------30.02+0.00 81.3 81.9----
2024-04-14 11:54 am-------30.02- 81.7 81.9----
2024-04-14 11:48 am-------30.02- 81.7 81.9----
2024-04-14 11:42 am-------30.02- 82.0 81.7----
2024-04-14 11:36 am-------30.02- 82.8 81.7----
2024-04-14 11:30 am-------30.03-- 81.5----
2024-04-14 11:24 am-------30.03-- 81.5----
2024-04-14 11:18 am-------30.03-- 81.5----
2024-04-14 11:12 am-------30.03-- 81.3----
2024-04-14 11:06 am-------30.03-- 81.3----
2024-04-14 11:00 am-------30.03+0.02 81.9 81.3----
2024-04-14 10:54 am-------30.03- 82.2 81.1----
2024-04-14 10:48 am-------30.03- 82.0 81.1----
2024-04-14 10:42 am-------30.03- 81.9 81.1----
2024-04-14 10:36 am-------30.03- 81.5 81.0----
2024-04-14 10:30 am-------30.03- 81.7 81.0----
2024-04-14 10:24 am-------30.03- 81.9 81.0----
2024-04-14 10:18 am-------30.03- 82.0 81.0----
2024-04-14 10:12 am-------30.03- 82.4 80.8----
2024-04-14 10:06 am-------30.03- 82.2 80.8----
2024-04-14 10:00 am-------30.03+0.04- 80.8----
2024-04-14 09:54 am-------30.03-- 80.8----
2024-04-14 09:48 am-------30.03- 82.2 80.8----
2024-04-14 09:42 am-------30.03- 81.9 80.8----
2024-04-14 09:36 am-------30.03- 81.7 80.6----
2024-04-14 09:30 am-------30.03-- 80.6----
2024-04-14 09:24 am-------30.03-- 80.6----
2024-04-14 09:18 am-------30.03- 81.3 80.6----
2024-04-14 09:12 am-------30.03- 81.1 80.4----
2024-04-14 09:06 am-------30.03- 81.1 80.4----
2024-04-14 09:00 am-------30.03- 81.1 80.4----
2024-04-14 08:54 am-------30.02- 80.8 80.4----
2024-04-14 08:48 am-------30.02- 80.6 80.4----
2024-04-14 08:42 am-------30.02- 80.4 80.4----
2024-04-14 08:36 am-------30.02- 80.2 80.4----
2024-04-14 08:30 am-------30.02-- 80.4----
2024-04-14 08:24 am-------30.02-- 80.2----
2024-04-14 08:18 am-------30.01- 79.7 80.2----
2024-04-14 08:12 am-------30.01- 79.7 80.2----
2024-04-14 08:06 am-------30.01- 79.7 80.2----
2024-04-14 08:00 am-------30.01+0.04- 80.2----
2024-04-14 07:54 am-------30.01-- 80.2----
2024-04-14 07:48 am-------30.01-- 80.2----
2024-04-14 07:42 am-------30.01-- 80.2----
2024-04-14 07:36 am-------30.01-- 80.4----
2024-04-14 07:30 am-------30.00- 78.1 80.4----
2024-04-14 07:24 am-------30.00- 77.5 80.4----
2024-04-14 07:18 am-------30.00-------
2024-04-14 07:12 am-------30.00-------
2024-04-14 07:06 am-------30.00-------
2024-04-14 07:00 am-------29.99+0.04 75.9 80.4----
2024-04-14 06:54 am-------29.99- 75.7 80.4----
2024-04-14 06:48 am-------29.99-- 80.4----
2024-04-14 06:42 am-------29.99-- 80.4----
2024-04-14 06:36 am-------29.99-- 80.4----
2024-04-14 06:30 am-------29.99- 75.0 80.4----
2024-04-14 06:24 am-------29.98- 75.0 80.4----
2024-04-14 06:18 am-------29.98- 75.0 80.4----
2024-04-14 06:12 am-------29.98- 75.2 80.6----
2024-04-14 06:06 am-------29.98- 75.2 80.6----
2024-04-14 06:00 am--------- 75.4-----
2024-04-14 05:54 am--------- 75.4-----
2024-04-14 05:48 am--------- 75.7 80.6----
2024-04-14 05:42 am--------- 75.6 80.6----
2024-04-14 05:36 am--------- 75.7 80.6----
2024-04-14 05:30 am-------29.98-- 80.6----
2024-04-14 05:24 am-------29.98-- 80.6----
2024-04-14 05:18 am-------29.97- 76.5 80.6----
2024-04-14 05:12 am-------29.97- 76.5 80.6----
2024-04-14 05:06 am-------29.97- 76.3 80.6----
2024-04-14 05:00 am-------29.97-0.02 76.3 80.6----
2024-04-14 04:54 am-------29.97- 75.9 80.6----
2024-04-14 04:48 am-------29.97- 76.5 80.6----
2024-04-14 04:42 am-------29.97- 76.3 80.8----
2024-04-14 04:36 am-------29.96- 76.5 80.8----
2024-04-14 04:30 am-------29.96- 76.3 80.8----
2024-04-14 04:24 am-------29.96- 76.5 80.8----
2024-04-14 04:18 am-------29.96- 76.8 80.8----
2024-04-14 04:12 am-------29.96- 76.8 80.8----
2024-04-14 04:06 am-------29.96- 77.2 80.8----
2024-04-14 04:00 am-------29.96-0.05 77.5 80.8----
2024-04-14 03:54 am-------29.96- 77.4 80.8----
2024-04-14 03:48 am-------29.96- 77.5 80.8----
2024-04-14 03:42 am-------29.96- 77.5 80.8----
2024-04-14 03:36 am-------29.96- 77.2 80.8----
2024-04-14 03:30 am-------29.96- 77.2 80.8----
2024-04-14 03:24 am-------29.96- 76.6 80.8----
2024-04-14 03:18 am-------29.96- 76.6 80.8----
2024-04-14 03:12 am-------29.96- 76.6 80.8----
2024-04-14 03:06 am-------29.96- 76.6 81.0----
2024-04-14 03:00 am-------29.96-0.06 77.0 81.0----
2024-04-14 02:54 am-------29.96- 77.2 81.0----
2024-04-14 02:48 am-------29.97- 77.2 81.0----
2024-04-14 02:42 am-------29.97- 77.4 81.0----
2024-04-14 02:36 am-------29.97- 77.5 81.0----
2024-04-14 02:30 am-------29.97- 77.5 81.0----
2024-04-14 02:24 am-------29.98- 77.7 81.0----
2024-04-14 02:18 am-------29.98- 77.7 81.0----
2024-04-14 02:12 am-------29.98- 77.7 81.0----
2024-04-14 02:06 am-------29.98- 77.5 81.0----
2024-04-14 02:00 am-------29.98-0.06 77.9 81.0----
2024-04-14 01:54 am-------29.99- 78.1 81.0----
2024-04-14 01:48 am-------29.99- 78.1 81.0----
2024-04-14 01:42 am-------30.00- 78.1 81.1----
2024-04-14 01:36 am-------30.00- 78.1 81.1----
2024-04-14 01:30 am-------30.00- 78.4 81.1----
2024-04-14 01:24 am-------30.00- 78.4 81.1----
2024-04-14 01:18 am-------30.00- 78.3 81.1----
2024-04-14 01:12 am-------30.00- 78.1 81.1----
2024-04-14 01:06 am-------30.00- 78.4 81.1----
2024-04-14 01:00 am-------30.01-0.05 78.4 81.1----
2024-04-14 12:54 am-------30.01- 78.4 81.1----
2024-04-14 12:48 am-------30.01- 78.4 81.1----
2024-04-14 12:42 am-------30.01- 78.4 81.1----
2024-04-14 12:36 am-------30.01- 78.4 81.3----
2024-04-14 12:30 am-------30.01- 78.3 81.3----
2024-04-14 12:24 am-------30.02- 78.3 81.3----
2024-04-14 12:18 am-------30.02- 78.1 81.3----
2024-04-14 12:12 am-------30.02- 78.3 81.3----
2024-04-14 12:06 am-------30.03- 78.3 81.3----
2024-04-14 12:00 am-------30.03-0.01 78.3 81.3----
2024-04-13 11:54 pm-------30.03- 78.4 81.3----
2024-04-13 11:48 pm-------30.03- 78.3 81.3----
2024-04-13 11:42 pm-------30.03- 78.3 81.5----
2024-04-13 11:36 pm-------30.03- 78.6 81.5----
2024-04-13 11:30 pm-------30.04- 78.6 81.5----
2024-04-13 11:24 pm-------30.04- 78.6 81.5----
2024-04-13 11:18 pm-------30.04- 78.8 81.5----
2024-04-13 11:12 pm-------30.04- 78.8 81.5----
2024-04-13 11:06 pm-------30.04- 78.6 81.5----
2024-04-13 11:00 pm-------30.04+0.01 78.3 81.5----
2024-04-13 10:54 pm-------30.04- 78.4 81.5----
2024-04-13 10:48 pm-------30.04- 78.4 81.5----
2024-04-13 10:42 pm-------30.05- 78.6 81.5----
2024-04-13 10:36 pm-------30.05- 78.6 81.5----
2024-04-13 10:30 pm-------30.05- 78.6 81.7----
2024-04-13 10:24 pm-------30.05- 78.3 81.7----
2024-04-13 10:18 pm-------30.05- 78.1 81.7----
2024-04-13 10:12 pm-------30.05- 78.4 81.7----
2024-04-13 10:06 pm-------30.05- 77.9 81.7----
2024-04-13 10:00 pm-------30.06+0.03 78.1 81.7----
2024-04-13 09:54 pm-------30.05- 78.3 81.7----
2024-04-13 09:48 pm-------30.05- 78.3 81.7----
2024-04-13 09:42 pm-------30.05- 78.4 81.9----
2024-04-13 09:36 pm-------30.05- 78.8 81.9----
2024-04-13 09:30 pm-------30.04- 78.8 81.9----
2024-04-13 09:24 pm-------30.04- 79.0 81.9----
2024-04-13 09:18 pm-------30.04- 79.2 82.0----
2024-04-13 09:12 pm-------30.04- 79.3 82.0----
2024-04-13 09:06 pm-------30.04- 79.3 82.2----
2024-04-13 09:00 pm-------30.04+0.02 79.5 82.0----
2024-04-13 08:54 pm-------30.04- 79.9 82.0----
2024-04-13 08:48 pm-------30.03- 79.9 82.2----
2024-04-13 08:42 pm-------30.04- 80.2 82.2----
2024-04-13 08:36 pm-------30.04- 80.4 82.4----
2024-04-13 08:30 pm-------30.03- 80.6 82.4----
2024-04-13 08:24 pm-------30.03- 80.6 82.4----
2024-04-13 08:18 pm-------30.03- 80.6 82.4----
2024-04-13 08:12 pm-------30.03- 80.6 82.4----
2024-04-13 08:06 pm-------30.03- 80.6 82.4----
2024-04-13 08:00 pm-------30.03+0.02 80.6 82.6----
2024-04-13 07:54 pm-------30.03- 80.4 82.6----
2024-04-13 07:48 pm-------30.03- 80.6 82.6----
2024-04-13 07:42 pm-------30.03- 80.6 82.4----
2024-04-13 07:36 pm-------30.03- 80.6 82.4----
2024-04-13 07:30 pm-------30.03- 80.6 82.4----
2024-04-13 07:24 pm-------30.03- 80.4 82.6----
2024-04-13 07:18 pm-------30.03- 80.6 82.6----
2024-04-13 07:00 pm-------30.03+0.01 80.8 82.6----
2024-04-13 06:54 pm-------30.03- 81.0 82.6----
2024-04-13 06:48 pm-------30.03- 81.1-----
2024-04-13 06:42 pm-------30.03- 81.3-----
2024-04-13 06:36 pm-------30.03- 81.1-----
2024-04-13 06:30 pm-------30.02- 81.1 82.8----
2024-04-13 06:24 pm-------30.02- 81.3 82.9----
2024-04-13 06:18 pm-------30.02- 81.3 82.9----
2024-04-13 06:12 pm-------30.02- 81.5 82.9----
2024-04-13 06:06 pm-------30.02- 81.5 83.1----
2024-04-13 06:00 pm-------30.02+0.00 81.3 83.3----
2024-04-13 05:54 pm-------30.02- 81.3 83.3----
2024-04-13 05:48 pm-------30.02- 81.3 83.3----
2024-04-13 05:42 pm-------30.02- 81.5 83.5----
2024-04-13 05:36 pm-------30.02- 81.5 83.5----
2024-04-13 05:30 pm-------30.02- 81.5 83.7----
2024-04-13 05:24 pm-------30.02- 81.3 83.7----
2024-04-13 05:18 pm-------30.01- 81.7 83.7----
2024-04-13 05:12 pm-------30.01- 81.7 83.8----
2024-04-13 05:06 pm-------30.01- 81.5 83.8----
2024-04-13 05:00 pm-------30.01-0.02 81.9 83.8----
2024-04-13 04:54 pm-------30.01- 82.0 83.7----
2024-04-13 04:48 pm--------- 82.0 83.8----
2024-04-13 04:42 pm--------- 82.0 83.8----
2024-04-13 04:36 pm--------- 81.9 83.8----
2024-04-13 04:30 pm-------30.01-- 84.0----
2024-04-13 04:24 pm-------30.01-- 84.0----
2024-04-13 04:18 pm-------30.01- 83.8 84.0----
2024-04-13 04:12 pm-------30.01- 84.2 84.2----
2024-04-13 04:06 pm-------30.01- 84.6 84.2----
2024-04-13 04:00 pm-------30.01-0.05 84.6 84.2----
2024-04-13 03:54 pm-------30.01- 85.3 84.2----
2024-04-13 03:48 pm-------30.01- 85.8 84.2----
2024-04-13 03:42 pm-------30.01- 86.9 84.2----
2024-04-13 03:36 pm-------30.01- 86.2 84.2----
2024-04-13 03:30 pm-------30.01- 86.7 84.2----
2024-04-13 03:24 pm-------30.01- 86.0 84.2----
2024-04-13 03:18 pm-------30.02- 86.7 84.2----
2024-04-13 03:12 pm-------30.02- 87.1 84.2----
2024-04-13 03:06 pm-------30.02- 86.9 84.2----
2024-04-13 03:00 pm-------30.02-0.06 86.7 84.0----
2024-04-13 02:54 pm-------30.02- 86.7 84.0----
2024-04-13 02:48 pm-------30.02-- 84.0----
2024-04-13 02:42 pm-------30.02-- 84.0----
2024-04-13 02:36 pm-------30.02-- 83.8----
2024-04-13 02:30 pm-------30.02- 86.2 83.7----
2024-04-13 02:24 pm-------30.02- 86.7 83.7----
2024-04-13 02:18 pm-------30.03-- 83.7----
2024-04-13 02:12 pm-------30.03-- 83.5----
2024-04-13 02:06 pm-------30.03-- 83.5----
2024-04-13 02:00 pm-------30.03-0.05 86.0 83.5----
2024-04-13 01:54 pm-------30.03- 86.9 83.3----
2024-04-13 01:48 pm-------30.03-- 83.1----
2024-04-13 01:42 pm-------30.04-- 83.1----
2024-04-13 01:36 pm-------30.04-- 83.1----
2024-04-13 01:30 pm-------30.04- 86.7 82.9----
2024-04-13 01:24 pm-------30.05- 86.2 82.9----
2024-04-13 01:18 pm-------30.05- 85.3 82.8----
2024-04-13 01:12 pm-------30.05- 86.2 82.8----
2024-04-13 01:06 pm-------30.06- 86.7 82.6----
2024-04-13 01:00 pm-------30.06-0.03 86.2 82.6----
2024-04-13 12:54 pm-------30.06- 86.2 82.6----